Regional Weather Roundup
Issued by NWS Jackson, KY

Home | Current Version | Previous Version | Text Only | Print | Product List | Glossary Off
Versions: 1 2 3 4 5 6 7 8 9 10 11 12 13 14 15 16 17 18 19 20 21 22 23 24 25 26 27 28 29 30 31 32 33 34 35 36 37 38 39 40 41 42 43 44 45 46 47 48 49 50

000
ASUS43 KJKL 262310
RWRJKL

EAST KENTUCKY HOURLY WEATHER ROUNDUP
NATIONAL WEATHER SERVICE JACKSON KY
600 PM EST SUN FEB 26 2017

NOTE: "FAIR" INDICATES FEW OR NO CLOUDS BELOW 12,000 FEET WITH
NO SIGNIFICANT WEATHER AND/OR OBSTRUCTIONS TO VISIBILITY.

* THESE REPORTS ARE NOT UNDER NWS QUALITY CONTROL AND MAY NOT
  REPORT WEATHER SUCH AS PRECIPITATION AND FOG.

KYZ079-080-083-085-087-088-110-112-115-119-120-270000
...EASTERN KENTUCKY...

CITY           SKY/WX    TMP DP  RH WIND       PRES   REMARKS
JACKSON        CLEAR     46  15  28 CALM      30.17F
LONDON         CLEAR     48  11  22 S3        30.18R
SOMERSET*      CLEAR     46  14  27 CALM      30.20R
MONTICELLO*    CLEAR     49  20  31 NE10      30.19R
WILLIAMSBURG*  CLEAR     48  16  27 SE5       30.18R
MIDDLESBORO*   CLEAR     48  16  27 S5        30.20R
HARLAN APT*    CLEAR     46  14  27 S3        30.18R
PIKE CO APT*     N/A     45  14  28 CALM      30.18S
BIG SANDY APT* CLEAR     46  14  27 S5        30.19S
MOREHEAD APT*  CLEAR     45  14  29 CALM      30.20R
ASHLAND*       CLEAR     39  16  38 SW5       30.18S
$$

KYZ035-036-041-042-044-050-067-078-099-270000
...CENTRAL KENTUCKY...

CITY           SKY/WX    TMP DP  RH WIND       PRES   REMARKS
FLEMING/MASON* CLEAR     44  19  37 SW7       30.20R
DANVILLE*      CLEAR     45  19  36 S3        30.19S
LEXINGTON      PTCLDY    47  14  26 S8        30.17R
FRANKFORT      CLEAR     48  13  24 S7        30.16R
LOUISVILLE     MOCLDY    50  13  22 S10       30.15S
LEBANON*         N/A     46  18  31 S6        30.17S
GLASGOW*       CLEAR     50  17  26 SE3       30.15F
BOWLING GREEN  PTCLDY    52  15  23 MISG      30.15S
$$

KYZ091>093-OHZ055-061-077-WVZ005-015-034-035-042-270000
...SOUTHERN OHIO/WEST VIRGINIA...

CITY           SKY/WX    TMP DP  RH WIND       PRES   REMARKS
COVINGTON      MOCLDY    45  14  28 SW13      30.15R
COLUMBUS       PTCLDY    44  16  32 SW12      30.15R
DAYTON         MOCLDY    42  15  33 SW13      30.13R
WILMINGTON     PTCLDY    42  18  37 SW13      30.14S
HUNTINGTON     CLEAR     46  12  25 S8        30.19R
CHARLESTON     PTCLDY    45  11  25 SW3       30.20R
PINEVILLE*     CLEAR     38  18  43 MISG      30.23S
BECKLEY        CLEAR     40   9  28 W7        30.17R
BLUEFIELD      CLEAR     39   9  29 W6        30.17R WCI  35
LOGAN CO APT*    N/A     43  12  28 CALM      30.18S
$$

VAZ002-007-008-TNZ017-027-036-066-071-270000
...SOUTHWEST VIRGINIA/EAST TENNESSEE...

CITY           SKY/WX    TMP DP  RH WIND       PRES   REMARKS
WISE*          CLEAR     43  12  28 CALM      30.17S
JONESVILLE*      N/A     48  16  27 S6        30.21S
ABINGDON*      CLEAR     46  14  28 W6        30.20R
BRISTOL        PTCLDY    46  17  31 S5        30.21R
MORRISTOWN*    CLEAR     46  18  31 N5        30.18S
SEVIERVILLE*   CLEAR     50  14  23 VRB3      30.18F
KNOXVILLE      PTCLDY    52  13  21 SW3       30.17F
LAFOLLETTE*    CLEAR     50  14  23 S6        30.21R
OAK RIDGE      CLEAR     51  14  22 CALM      30.20S
CROSSVILLE     CLEAR     47  18  31 SE3       30.17R
NASHVILLE      MOCLDY    53  17  24 SE7       30.15S
$$

...KEY TO REMARKS...
VSB - VISIBILITY IN MILES
WCI - WIND CHILL INDEX
HX  - HEAT INDEX

$$



USA.gov is the U.S. government's official web portal to all federal, state and local government web resources and services.